CW4352 Weather Reports


time (UTC)temp
F
wind
direction
speed
knots
gust
knots
rain 1hr
in
rain 24hr
in
rain mn
in
humidity
%
barometer
mb
20260903163707 91 13 0.0 1.7 0.00 0.00 0.00 32 1012.3
20260903163206 90 13 0.0 0.9 0.00 0.00 0.00 32 1012.1
20260903161707 91 13 1.7 2.6 0.00 0.00 0.00 32 1012.1
20260903161207 91 13 0.9 2.6 0.00 0.00 0.00 32 1012.1
20260903160707 91 9 1.7 2.6 0.00 0.00 0.00 32 1012.1
20260903154706 91 5 0.0 2.6 0.00 0.00 0.00 31 1012.7
20260903153207 91 9 0.9 2.6 0.00 0.00 0.00 32 1012.7
20260903151206 91 333 1.7 2.6 0.00 0.00 0.00 31 1012.7
20260903150707 91 333 0.9 2.6 0.00 0.00 0.00 31 1012.7
20260903144707 91 335 1.7 4.3 0.00 0.00 0.00 31 1013.0
20260903144206 91 335 1.7 4.3 0.00 0.00 0.00 30 1013.0
20260903143707 91 324 1.7 6.1 0.00 0.00 0.00 31 1013.0
20260903140707 91 0 0.9 4.3 0.00 0.00 0.00 32 1013.0
20260903140206 91 9 0.9 5.2 0.00 0.00 0.00 33 1013.0
20260903134707 92 34 0.0 1.7 0.00 0.00 0.00 32 1013.0
20260903134206 91 47 0.9 2.6 0.00 0.00 0.00 31 1013.1
20260903133707 91 10 0.0 2.6 0.00 0.00 0.00 33 1013.2
20260903131709 91 49 1.7 2.6 0.00 0.00 0.00 34 1013.2
20260903123207 91 55 0.9 7.8 0.00 0.00 0.00 34 1013.5
20260903121206 90 22 1.7 2.6 0.00 0.00 0.00 34 1013.5
20260903120207 90 40 0.9 4.3 0.00 0.00 0.00 36 1013.5
20260903113706 89 65 0.9 7.0 0.00 0.00 0.00 35 1013.7
20260903111706 89 48 1.7 4.3 0.00 0.00 0.00 37 1014.3
20260903111206 89 45 1.7 4.3 0.00 0.00 0.00 37 1014.3
20260903110207 89 31 1.7 4.3 0.00 0.00 0.00 38 1014.3
20260903104706 88 30 0.9 2.6 0.00 0.00 0.00 38 1014.3
20260903103207 88 26 0.9 4.3 0.00 0.00 0.00 39 1014.3
20260903101707 86 19 1.7 4.3 0.00 0.00 0.00 42 1014.8
20260903100207 86 15 1.7 4.3 0.00 0.00 0.00 43 1014.8
20260903094706 85 22 1.7 2.6 0.00 0.00 0.00 43 1015.0
20260903094207 85 33 1.7 2.6 0.00 0.00 0.00 45 1015.0
20260903093707 85 355 1.7 2.6 0.00 0.00 0.00 45 1015.0
20260903093206 85 11 0.9 4.3 0.00 0.00 0.00 45 1015.0
20260903091707 85 42 1.7 2.6 0.00 0.00 0.00 45 1015.0
20260903091207 85 25 1.7 2.6 0.00 0.00 0.00 45 1014.9
20260903090206 84 35 0.9 2.6 0.00 0.00 0.00 45 1014.7
20260903084707 84 53 0.9 2.6 0.00 0.00 0.00 45 1014.7
20260903084206 84 65 1.7 4.3 0.00 0.00 0.00 46 1014.7
20260903083206 84 89 1.7 4.3 0.00 0.00 0.00 46 1014.7
20260903081206 82 89 0.9 4.3 0.00 0.00 0.00 47 1014.7
20260903080707 82 89 1.7 4.3 0.00 0.00 0.00 48 1014.7
20260903080206 82 89 1.7 4.3 0.00 0.00 0.00 49 1014.7
20260903073207 79 89 1.7 4.3 0.00 0.00 0.00 53 1014.6
20260903071206 77 89 0.0 4.3 0.00 0.00 0.00 56 1014.4
20260903070706 77 89 1.7 4.3 0.00 0.00 0.00 56 1014.4
20260903064706 74 89 0.0 0.9 0.00 0.00 0.00 61 1014.3
20260903063706 74 89 0.0 1.7 0.00 0.00 0.00 62 1014.3
20260903063207 73 89 0.9 2.6 0.00 0.00 0.00 64 1014.3
20260903060206 71 89 0.9 2.6 0.00 0.00 0.00 66 1014.3
20260903054706 71 89 0.9 2.6 0.00 0.00 0.00 65 1014.3
20260903051706 70 89 0.0 1.7 0.00 0.00 0.00 65 1013.8
20260903050706 70 89 1.7 2.6 0.00 0.00 0.00 65 1013.8
20260903044706 70 89 1.7 4.3 0.00 0.00 0.00 65 1013.6
20260903043706 70 89 1.7 4.3 0.00 0.00 0.00 65 1013.6
20260903043207 70 89 1.7 4.3 0.00 0.00 0.00 65 1013.6
20260903041706 70 89 2.6 4.3 0.00 0.00 0.00 65 1013.2
20260903040706 69 89 1.7 2.6 0.00 0.00 0.00 66 1013.2
20260903034706 70 89 0.0 0.0 0.00 0.00 0.00 65 1013.2
20260903034206 71 89 0.0 0.0 0.00 0.00 0.00 65 1013.2
20260903033707 71 89 0.0 1.7 0.00 0.00 0.00 64 1013.4
20260903031706 71 89 1.7 4.3 0.00 0.00 0.00 64 1013.4
20260903031206 71 89 2.6 5.2 0.00 0.00 0.00 64 1013.4
20260903030707 71 89 3.5 6.1 0.00 0.00 0.00 65 1013.4
20260903030206 71 89 0.9 5.2 0.00 0.00 0.00 65 1013.4
20260903024706 71 89 2.6 6.1 0.00 0.00 0.00 64 1013.4
20260903024206 71 89 4.3 6.1 0.00 0.00 0.00 64 1013.4
20260903023207 71 89 3.5 6.1 0.00 0.00 0.00 65 1013.4
20260903021707 70 89 0.9 4.3 0.00 0.00 0.00 66 1013.4
20260903021206 71 89 0.9 2.6 0.00 0.00 0.00 65 1013.4
20260903020206 71 89 1.7 4.3 0.00 0.00 0.00 65 1013.4
20260903014706 72 89 0.9 2.6 0.00 0.00 0.00 63 1013.5
20260903014207 72 89 0.9 4.3 0.00 0.00 0.00 63 1013.5
20260903013206 72 89 1.7 7.0 0.00 0.00 0.00 63 1013.5
20260903011206 72 89 0.9 2.6 0.00 0.00 0.00 64 1013.6
20260903010207 72 89 1.7 4.3 0.00 0.00 0.00 65 1013.2
20260903004707 72 89 2.6 4.3 0.00 0.00 0.00 64 1013.2
20260903004206 72 89 2.6 5.2 0.00 0.00 0.00 64 1013.2
20260903001706 72 89 4.3 6.1 0.00 0.00 0.00 63 1013.2
20260903000706 72 89 2.6 4.3 0.00 0.00 0.00 65 1013.2
20260902233207 73 89 2.6 5.2 0.00 0.00 0.00 64 1013.2
20260902231706 73 89 4.3 7.0 0.00 0.00 0.00 63 1013.2
20260902231206 73 88 5.2 7.8 0.00 0.00 0.00 63 1013.2
20260902223209 74 88 2.6 4.3 0.00 0.00 0.00 67 1012.3
20260902221708 74 88 4.3 4.3 0.00 0.00 0.00 66 1012.3
20260902220706 74 88 2.6 5.2 0.00 0.00 0.00 66 1012.7
20260902220206 74 88 3.5 7.0 0.00 0.00 0.00 65 1012.7
20260902213706 74 88 0.9 2.6 0.00 0.00 0.00 66 1012.7
20260902203706 74 88 0.0 0.9 0.00 0.00 0.00 69 1012.5
20260902203205 74 88 0.9 4.3 0.00 0.00 0.00 69 1012.5
20260902201205 74 88 0.9 1.7 0.00 0.00 0.00 69 1012.3
20260902200206 73 88 0.9 1.7 0.00 0.00 0.00 70 1012.3
20260902194705 74 88 0.9 1.7 0.00 0.00 0.00 72 1012.3
20260902193705 75 88 0.0 1.7 0.00 0.00 0.00 68 1012.1
20260902191205 76 88 0.9 2.6 0.00 0.00 0.00 66 1012.1
20260902190706 76 88 0.9 1.7 0.00 0.00 0.00 65 1012.1
20260902181706 78 88 1.7 2.6 0.00 0.00 0.00 56 1011.9
20260902180205 78 88 1.7 6.1 0.00 0.00 0.00 54 1011.6
20260902174705 80 88 2.6 5.2 0.00 0.00 0.00 51 1011.6
20260902171705 84 68 2.6 7.0 0.00 0.01 0.00 43 1011.6
20260902170206 86 37 2.6 6.1 0.00 0.01 0.00 44 1011.3
20260902164705 86 355 0.9 2.6 0.00 0.01 0.00 37 1011.3